This demonstration page uses our WeatherBlox Daily Observations layout. Learn more.

Left ArrowRight Arrow

Hourly Observations for March 28, 2020

Temp ( °F °C ) Dew Point ( °F °C ) Humidity (%) Winds ( mph kmh ) Pressure ( in mb ) Visibility ( mi km ) Precip ( " mm )
12:15 am 00:15 Partly Cloudy 55 13 55 13 100 100 SE 7 11 29.78 1008 7 11 N/A
12:35 am 00:35 Cloudy 55 13 55 13 100 100 ESE 8 13 29.75 1007 7 11 N/A
12:55 am 00:55 Cloudy 55 13 55 13 100 100 N N/A 29.78 1008 7 11 N/A
1:15 am 01:15 Cloudy 57 14 57 14 100 100 S 3 6 29.82 1010 7 11 N/A
1:35 am 01:35 Cloudy 55 13 55 13 100 100 S 10 17 29.81 1009 7 11 N/A
1:56 am 01:56 Cloudy 55 13 55 13 100 100 S 12 19 29.79 1009 7 11 N/A
2:15 am 02:15 Cloudy 55 13 55 13 100 100 S 10 17 29.78 1008 5 8 N/A
2:35 am 02:35 Partly Cloudy 57 14 57 14 100 100 SSE 15 24 29.71 1006 7 11 N/A
2:55 am 02:55 Clear 57 14 57 14 100 100 S 9 15 29.72 1006 7 11 N/A
3:16 am 03:16 Clear 59 15 59 15 100 100 S 10 17 29.72 1007 7 11 N/A
3:35 am 03:35 Partly Cloudy 57 14 57 14 100 100 S 9 15 29.73 1007 7 11 N/A
3:55 am 03:55 Partly Cloudy 59 15 59 15 100 100 S 12 19 29.71 1006 7 11 N/A
4:15 am 04:15 Clear 59 15 59 15 100 100 S 10 17 29.70 1006 7 11 N/A
4:35 am 04:35 Clear 59 15 59 15 100 100 S 10 17 29.70 1006 7 11 N/A
4:55 am 04:55 Clear 59 15 59 15 100 100 S 8 13 29.69 1006 7 11 N/A
5:16 am 05:16 Mostly Cloudy 59 15 59 15 100 100 S 8 13 29.69 1006 7 11 N/A
5:36 am 05:36 Cloudy 59 15 59 15 100 100 S 8 13 29.69 1006 7 11 N/A
5:55 am 05:55 Cloudy 59 15 59 15 100 100 S 6 9 29.69 1006 5 8 N/A
6:16 am 06:16 Cloudy 59 15 59 15 100 100 S 5 7 29.70 1006 5 8 N/A
6:35 am 06:35 Mostly Cloudy 59 15 59 15 100 100 S 7 11 29.69 1006 5 8 N/A
6:55 am 06:55 Partly Cloudy 59 15 59 15 100 100 S 8 13 29.70 1006 5 8 N/A
7:15 am 07:15 Partly Cloudy 59 15 59 15 100 100 S 8 13 29.68 1005 5 8 N/A
7:36 am 07:36 Sunny 59 15 59 15 100 100 S 10 17 29.67 1005 4 6 N/A
7:55 am 07:55 Sunny 59 15 59 15 100 100 S 9 15 29.67 1005 4 6 N/A
8:15 am 08:15 Sunny 61 16 61 16 100 100 S 9 15 29.69 1005 5 8 N/A
8:35 am 08:35 Mostly Cloudy 61 16 61 16 100 100 S 10 17 29.69 1005 7 11 N/A
8:55 am 08:55 Cloudy 63 17 63 17 100 100 S 9 15 29.69 1005 7 11 N/A
9:15 am 09:15 Cloudy 63 17 63 17 100 100 S 10 17 29.70 1006 7 11 N/A
9:35 am 09:35 Cloudy 63 17 63 17 100 100 S 8 13 29.70 1006 10 16 N/A
9:55 am 09:55 Cloudy 64 18 64 18 100 100 SSW 8 13 29.70 1006 10 16 N/A
10:15 am 10:15 Cloudy 64 18 64 18 100 100 S 6 9 29.71 1006 10 16 N/A
10:36 am 10:36 Cloudy 66 19 66 19 100 100 SSW 6 9 29.70 1006 10 16 N/A
10:55 am 10:55 Mostly Cloudy 66 19 66 19 100 100 SSW 8 13 29.71 1006 10 16 N/A
11:15 am 11:15 Mostly Cloudy 66 19 66 19 100 100 SSW 6 9 29.71 1006 10 16 N/A
11:36 am 11:36 Cloudy 68 20 68 20 100 100 SW 7 11 29.72 1006 10 16 N/A
11:55 am 11:55 Cloudy 70 21 70 21 100 100 WSW 6 9 29.73 1007 10 16 N/A
12:15 pm 12:15 Cloudy 70 21 70 21 100 100 WSW 10 17 29.72 1006 10 16 N/A
12:36 pm 12:36 Mostly Cloudy 68 20 68 20 100 100 WSW 9 15 29.72 1006 10 16 N/A
12:56 pm 12:56 Mostly Cloudy 70 21 70 21 100 100 WSW 9 15 29.72 1006 10 16 N/A
1:15 pm 13:15 Partly Cloudy 70 21 70 21 100 100 SW 14 22 29.74 1007 10 16 N/A
1:35 pm 13:35 Mostly Cloudy 70 21 70 21 100 100 SW 13 20 29.74 1007 10 16 N/A
1:55 pm 13:55 Cloudy 70 21 70 21 100 100 SW 13 20 29.74 1007 10 16 N/A
2:16 pm 14:16 Cloudy 72 22 72 22 100 100 SW 12 19 29.72 1007 10 16 N/A
2:36 pm 14:36 Cloudy 70 21 70 21 100 100 WSW 12 19 29.74 1007 10 16 N/A
2:56 pm 14:56 Cloudy 72 22 72 22 100 100 WSW 9 15 29.73 1007 10 16 N/A
3:15 pm 15:15 Cloudy 61 16 61 16 100 100 N 14 22 29.74 1007 5 8 N/A
3:36 pm 15:36 Cloudy 63 17 63 17 100 100 E 6 9 29.75 1007 7 11 N/A
3:55 pm 15:55 Cloudy 64 18 64 18 100 100 ESE 8 13 29.71 1006 7 11 N/A
4:16 pm 16:16 Cloudy 63 17 63 17 100 100 ESE 8 13 29.73 1007 7 11 N/A
4:36 pm 16:36 Cloudy 63 17 63 17 100 100 SSE 8 13 29.74 1007 7 11 N/A
4:56 pm 16:56 Cloudy 63 17 63 17 100 100 N N/A 29.74 1007 3 4 N/A
5:15 pm 17:15 Cloudy 64 18 64 18 100 100 N N/A 29.73 1007 3 5 N/A
5:35 pm 17:35 Cloudy 64 18 64 18 100 100 W 9 15 29.75 1008 4 6 N/A
5:55 pm 17:55 Cloudy 63 17 63 17 100 100 N 8 13 29.75 1007 5 8 N/A
6:15 pm 18:15 Cloudy 63 17 63 17 100 100 N 7 11 29.75 1007 1 1 N/A
6:35 pm 18:35 Cloudy 63 17 63 17 100 100 ENE 5 7 29.73 1007 10 16 N/A
6:56 pm 18:56 Cloudy 63 17 63 17 100 100 E 8 13 29.72 1006 10 16 N/A
7:15 pm 19:15 Cloudy 63 17 63 17 100 100 E 6 9 29.72 1006 10 16 N/A
7:35 pm 19:35 Cloudy 61 16 61 16 100 100 E 6 9 29.72 1006 10 16 N/A
7:56 pm 19:56 Mostly Cloudy 61 16 61 16 100 100 ESE 8 13 29.71 1006 10 16 N/A
8:15 pm 20:15 Partly Cloudy 61 16 61 16 100 100 SE 6 9 29.70 1006 10 16 N/A
8:35 pm 20:35 Clear 61 16 61 16 100 100 ESE 7 11 29.68 1005 10 16 N/A
8:55 pm 20:55 Partly Cloudy 63 17 63 17 100 100 ESE 6 9 29.69 1005 10 16 N/A
9:16 pm 21:16 Mostly Cloudy 63 17 63 17 100 100 SE 6 9 29.69 1005 10 16 N/A
9:35 pm 21:35 Cloudy 63 17 63 17 100 100 SSE 5 7 29.70 1006 10 16 N/A
9:55 pm 21:55 Cloudy 63 17 63 17 100 100 SE 6 9 29.70 1006 10 16 N/A
10:15 pm 22:15 Cloudy 63 17 63 17 100 100 S 6 9 29.72 1006 7 11 N/A
10:36 pm 22:36 Cloudy 61 16 61 16 100 100 SW 13 20 29.79 1009 2 2 N/A
10:55 pm 22:55 Cloudy 61 16 61 16 100 100 SSW 24 39 29.74 1007 5 8 N/A
11:15 pm 23:15 Cloudy 61 16 61 16 100 100 S 16 26 29.71 1006 7 11 N/A
11:35 pm 23:35 Mostly Cloudy 61 16 61 16 100 100 S 17 28 29.69 1005 10 16 N/A
11:56 pm 23:56 Mostly Cloudy 63 17 63 17 100 100 S 15 24 29.67 1005 10 16 N/A

Powered by AerisWeather